[[{"header":{"parameterUnit":"m.s-1","parameterCategory":1,"la1":30.2992,"la2":30.254,"lo1":-89.0895,"lo2":-89.0443,"dy":0.0025,"dx":0.0025,"nx":19,"ny":19,"refTime":"2026-05-24T21:00:00:Z","depth":0,"parameterNumber":2,"parameterNumberName":"U-component_of_WINDS"},"data":[0,0,0,-3.5903,-3.5908,-3.6175,-3.6176,-3.6511,-3.6514,0,0,0,0,0,0,0,0,0,0,0,-3.5819,-3.5821,-3.5902,-3.5909,-3.6175,-3.6176,-3.651,-3.6514,0,0,0,0,0,0,0,0,0,0,0,-3.5818,-3.5821,-3.5823,-3.591,-3.6174,-3.6176,-3.6509,-3.6311,0,0,0,0,0,0,0,0,0,0,-3.6053,-3.5971,-3.582,-3.5823,-3.5911,-3.6174,-3.6176,-3.6301,-3.6323,-3.6387,0,-3.6441,0,-3.6483,-3.6535,-3.6537,0,0,0,-3.5913,-3.5953,-3.6029,-3.5824,-3.5914,-3.6174,-3.6056,-3.6314,-3.6338,-3.6416,-3.6446,-3.6459,-3.6488,-3.6538,-3.6539,-3.6889,-3.689,0,0,-3.5898,-3.5865,-3.6012,-3.6045,-3.6002,-3.6047,-3.6064,-3.6329,-3.636,-3.6447,-3.6467,-3.6494,-3.654,-3.6542,-3.6888,-3.6889,0,0,0,-3.5853,-3.5854,-3.5924,-3.6031,-3.6079,-3.6055,-3.6074,-3.6349,-3.6374,-3.6471,-3.6498,-3.6542,-3.6546,-3.6886,-3.6888,-3.6926,0,0,0,-3.5844,-3.5828,-3.5917,-3.59,-3.6074,-3.6217,-3.6088,-3.6355,-3.6386,-3.6496,-3.6542,-3.6549,-3.6885,-3.6887,-3.6921,-3.6949,0,0,0,-3.5803,-3.5824,-3.586,-3.5897,-3.6011,-3.6213,-3.6254,-3.6363,-3.6403,-3.6537,-3.655,-3.6884,-3.6887,-3.6917,-3.6943,-3.703,0,0,0,-3.575,-3.5892,-3.586,-3.6029,-3.6008,-3.6234,-3.6253,-3.6424,-3.6543,-3.6543,-3.6885,-3.6888,-3.6916,-3.6939,-3.7025,-3.7096,-3.7122,0,0,-3.5911,-3.591,-3.6012,-3.5991,-3.6214,-3.6196,-3.6426,-3.6568,-3.6612,-3.6794,-3.6804,-3.6923,-3.6942,-3.7029,-3.7285,-3.7306,0,0,0,-3.6051,-3.6124,-3.619,-3.6301,-3.6411,-3.6508,-3.6618,-3.6671,-3.6826,-3.6699,-3.698,-3.6992,-3.7044,-3.708,-3.7097,-3.7143,-3.6903,-3.6903,-3.6903,-3.6231,-3.6277,-3.6448,-3.6527,-3.6634,-3.6745,-3.6837,-3.6926,-3.6945,-3.701,-3.7064,-3.7213,-3.7253,-3.7267,-3.7314,-3.7106,-3.7106,-3.7107,-3.7107,-3.6468,-3.6578,-3.6595,-3.6767,-3.6816,-3.6962,-3.7074,-3.7081,-3.7224,-3.7177,-3.7226,-3.7169,-3.7288,-3.7332,-3.711,-3.7109,-3.7109,-3.7109,-3.7108,-3.659,-3.665,-3.671,-3.6873,-3.6995,-3.707,-3.7205,-3.7246,-3.7286,-3.7333,-3.7394,-3.7393,-3.7396,-3.7359,-3.736,-3.7361,-3.7361,-3.7361,-3.7362,-3.6691,-3.6758,-3.6866,-3.6993,-3.7068,-3.7173,-3.7284,-3.7361,-3.7455,-3.7474,-3.7475,-3.7485,-3.7291,-3.7241,-3.737,-3.7368,-3.7367,-3.7367,-3.7366,-3.6913,-3.6869,-3.7035,-3.711,-3.7262,-3.7379,-3.7428,-3.7579,-3.7648,-3.7713,-3.7713,-3.7564,-3.7567,-3.7553,-3.7511,-3.7703,-3.7703,-3.7703,-3.7703,-3.7014,-3.7019,-3.7197,-3.7314,-3.7434,-3.7495,-3.7682,-3.7769,-3.7854,-3.7899,-3.7878,-3.7826,-3.781,-3.7823,-3.7803,-3.7765,-3.8017,-3.8017,-3.8018,-3.7152,-3.717,-3.732,-3.74,-3.7521,-3.7624,-3.78,-3.7935,-3.8022,-3.8031,-3.7935,-3.7922,-3.784,-3.7811,-3.7817,-3.7785,-3.7716,0,0]},{"header":{"parameterUnit":"m.s-1","parameterCategory":1,"la1":30.2992,"la2":30.254,"lo1":-89.0895,"lo2":-89.0443,"dy":0.0025,"dx":0.0025,"nx":19,"ny":19,"refTime":"2026-05-24T21:00:00:Z","depth":0,"parameterNumber":3,"parameterNumberName":"V-component_of_WINDS"},"data":[0,0,0,3.4872,3.4875,3.4989,3.499,3.5148,3.5149,0,0,0,0,0,0,0,0,0,0,0,3.4848,3.4849,3.4872,3.4875,3.4989,3.499,3.5147,3.5149,0,0,0,0,0,0,0,0,0,0,0,3.4847,3.4849,3.4851,3.4876,3.4989,3.499,3.5147,3.5056,0,0,0,0,0,0,0,0,0,0,3.4943,3.493,3.4849,3.4851,3.4876,3.4989,3.499,3.5051,3.5062,3.5102,0,3.5142,0,3.5148,3.5161,3.5161,0,0,0,3.4868,3.4922,3.4944,3.4851,3.4878,3.4989,3.4936,3.5057,3.5069,3.5116,3.5144,3.5149,3.5151,3.5162,3.5163,3.5424,3.5425,0,0,3.4861,3.4873,3.4936,3.4952,3.4938,3.4932,3.4939,3.5064,3.5095,3.5145,3.5153,3.5154,3.5163,3.5164,3.5422,3.5424,0,0,0,3.4848,3.4869,3.4888,3.4946,3.4966,3.4935,3.4944,3.5089,3.5095,3.5155,3.5155,3.5164,3.5166,3.5421,3.5423,3.5513,0,0,0,3.4844,3.4861,3.4886,3.4894,3.4964,3.503,3.4967,3.5086,3.51,3.5155,3.5164,3.5168,3.5419,3.5422,3.5507,3.5554,0,0,0,3.4837,3.486,3.488,3.4894,3.4944,3.5027,3.5039,3.5089,3.5101,3.5162,3.5168,3.5418,3.5421,3.5502,3.5545,3.5626,0,0,0,3.4833,3.4958,3.4882,3.5022,3.4943,3.5083,3.5038,3.5141,3.5204,3.5165,3.5419,3.5423,3.55,3.5539,3.562,3.5697,3.5731,0,0,3.4997,3.4978,3.506,3.4995,3.5152,3.5064,3.5233,3.5278,3.5272,3.5373,3.5379,3.5509,3.5544,3.5625,3.5912,3.5939,0,0,0,3.5116,3.5175,3.5214,3.5275,3.5314,3.5351,3.5369,3.5386,3.5471,3.5327,3.556,3.558,3.5627,3.5664,3.5686,3.5726,3.544,3.544,3.5439,3.5366,3.5353,3.5487,3.5487,3.5547,3.5566,3.5612,3.5638,3.5606,3.5661,3.5691,3.5867,3.591,3.5927,3.5968,3.573,3.5731,3.5731,3.5731,3.5606,3.5687,3.5643,3.5757,3.5742,3.5836,3.5858,3.5833,3.5918,3.5843,3.5884,3.5804,3.5956,3.5992,3.5738,3.5737,3.5736,3.5735,3.5735,3.5769,3.5805,3.5824,3.5912,3.598,3.5975,3.606,3.6042,3.6026,3.6066,3.6096,3.6094,3.6091,3.6082,3.6082,3.6083,3.6083,3.6084,3.6084,3.593,3.5948,3.6023,3.6075,3.6112,3.6158,3.6177,3.6212,3.6247,3.6227,3.6227,3.619,3.5974,3.592,3.6094,3.6092,3.6091,3.609,3.6089,3.6179,3.612,3.6234,3.6272,3.6331,3.64,3.6376,3.645,3.6476,3.6518,3.6472,3.6315,3.6294,3.6276,3.6231,3.6475,3.6474,3.6475,3.6475,3.6316,3.6304,3.6417,3.6478,3.6535,3.6525,3.6654,3.667,3.6676,3.6692,3.6654,3.6593,3.6575,3.6564,3.654,3.6498,3.6804,3.6804,3.6804,3.6468,3.6461,3.6575,3.6582,3.6627,3.6665,3.6785,3.6855,3.685,3.6817,3.6703,3.6689,3.6591,3.6559,3.6524,3.6487,3.641,0,0]}]]